SYCJ Airport Information

Runway Information
Runway 06 Length 7448 ft width 148 ft
Elevation 96 ft Threshold 0 ft Heading 45
Runway 24 Length 7448 ft Width 148 ft
Elevation 71 ft Threshold 0 ft Heading 225
Runway 11 Length 5002 ft width 148 ft
Elevation 74 ft Threshold 0 ft Heading 90
Runway 29 Length 5002 ft Width 148 ft
Elevation 81 ft Threshold 0 ft Heading 270
Airport Frequencies
Type APP Name TIMEHRI AP Frequency 119.4 MHZ
Type GND Name GND Frequency 121.7 MHZ
Type TWR Name TIMEHRI TW Frequency 118.3 MHZ
Airport Navaids
Type VOR-DME Name Timehri Frequency 113500 KHZ
Type NDB Name Timehri Frequency 356 KHZ
Type NDB Name Timehri Frequency 305 KHZ
Airport Weather Information & NOTAM
ADDS - METARS form results

(0135 UTC 19 August 2018)
 
METAR text: SYCJ 190100Z 01006KT 9999 FEW017 24/23 Q1014 NOSIG
Conditions at: SYCJ (GEORGETOWN/TIMEH, GY) observed 0100 UTC 19 August 2018
Temperature: 24.0°C (75°F)
Dewpoint: 23.0°C (73°F) [RH = 94%]
Pressure (altimeter): 29.94 inches Hg (1014.0 mb)
Winds: from the N (10 degrees) at 7 MPH (6 knots; 3.1 m/s)
Visibility: 6 or more miles (10+ km)
Ceiling: at least 12,000 feet AGL
Clouds: few clouds at 1700 feet AGL
Weather: no significant weather observed at this time